Meteopurmerend
purmerend
Purmerend - Baaienwijk



My webcam  My webcam


Onweer radar Meer informatie blitzortung!


Regen radar Meer informatie rain snow radar


Bezoek onze andere website:

CandyAppleRed WebdesignWebdesign Purmerend Candy Apple Red

MeteopurmerendBlog

Template documentation
and downloads



We konden geen weer-waarchuwingen ophalen. Ga rechtstreeks naar de Meteoalarm site : www.meteoalarm.eu en controleer daar .

15 daagse weersverwachting Bradford (GB)

  • Overzicht
  • Per uur
  • 15 dagen
  • Extra
  • Vergelijk
  • Kaarten
  • Dagkaart
  • Meer »
  • Info
  • Statistieken
  • Directe link
    Temp 6h Neerslag Wind  
 05:19     21:09    Daglengte: 15:50 Vandaag
13:00
15°
 
9
19:00
15°
 
7
 05:21     21:07    Daglengte: 15:46 Morgen
01:00
14°
 
3
07:00
13°
0.9 mm
1
13:00
15°
7.7 mm
4
19:00
15°
11.0 mm
3
 05:23     21:05    Daglengte: 15:42 Zaterdag 31 Jul
01:00
14°
5.5 mm
4
07:00
14°
 
4
13:00
18°
 
5
19:00
16°
21.8 mm
5
 05:24     21:03    Daglengte: 15:39 Zondag 01 Aug
01:00
13°
 
3
07:00
13°
 
2
Locatie info
Region: England
Latitude: 53.7957°N
Longitude: -1.7583°E
110 masl
Postcode: BD1 2
Temp/Neerslag /Baro Onweer/Dauwpunt
    Temp Baro 1h Neerslag Dauwpunt Wind UV Bewolking  
 05:19     21:09    Daglengte: 15:50 Vandaag
10:00
14°
1004.4 hPa
14%
11.0°
8
Windvlaag: 6 m/s
64%
11:00
14°
1004.6 hPa
70%
11.8°
9
Windvlaag: 6 m/s
63%
12:00
15°
1004.9 hPa
78%
11.9°
9
Windvlaag: 5.5 m/s
55%
13:00
15°
1005.3 hPa
70%
12.3°
9
Windvlaag: 5 m/s
54%
14:00
15°
1005.5 hPa
24%
12.6°
8
Windvlaag: 5.2 m/s
56%
15:00
15°
1006.0 hPa
29%
12.6°
8
Windvlaag: 5.8 m/s
67%
16:00
15°
1006.2 hPa
29%
12.7°
8
Windvlaag: 6 m/s
74%
17:00
15°
1006.6 hPa
29%
12.7°
8
Windvlaag: 6.3 m/s
64%
18:00
15°
1006.7 hPa
65%
12.6°
7
Windvlaag: 6.6 m/s
38%
19:00
15°
1006.7 hPa
19%
12.6°
7
Windvlaag: 6.6 m/s
57%
20:00
15°
1006.7 hPa
14%
12.5°
6
Windvlaag: 5.1 m/s
45%
21:00
14°
1006.8 hPa
14%
12.2°
5
Windvlaag: 3.4 m/s
75%
22:00
14°
1007.0 hPa
16%
12.0°
5
Windvlaag: 3.1 m/s
61%
23:00
14°
1006.8 hPa
15%
11.9°
4
Windvlaag: 2.9 m/s
75%
 05:21     21:07    Daglengte: 15:46 Morgen
00:00
14°
1006.7 hPa
16%
11.9°
4
Windvlaag: 3.2 m/s
84%
01:00
14°
1006.3 hPa
17%
11.9°
3
Windvlaag: 3.3 m/s
82%
02:00
14°
1006.1 hPa
16%
11.8°
3
Windvlaag: 2.2 m/s
79%
03:00
13°
1005.6 hPa
30%
11.9°
2
Windvlaag: 0.6 m/s
70%
04:00
13°
1005.1 hPa
79%
11.6°
2
Windvlaag: 1.4 m/s
80%
05:00
13°
1004.7 hPa
82%
11.6°
1
Windvlaag: 1.4 m/s
84%
06:00
13°
1004.6 hPa 0.5 mm
82%
11.7°
1
Windvlaag: 0.5 m/s
81%
07:00
13°
1004.5 hPa 0.4 mm
82%
11.7°
1
Windvlaag: 0.4 m/s
86%
08:00
13°
1004.4 hPa 0.5 mm
82%
11.5°
1
Windvlaag: -0.2 m/s
86%
09:00
13°
1004.4 hPa 1.5 mm
82%
11.1°
2
Windvlaag: 0.2 m/s
86%
10:00
13°
1004.2 hPa 1.4 mm
82%
10.7°
3
Windvlaag: -0 m/s
86%
11:00
14°
1004.1 hPa 1.5 mm
82%
10.4°
3
Windvlaag: -0.3 m/s
86%
12:00
14°
1004.0 hPa 1.6 mm
82%
10.4°
3
Windvlaag: -0.9 m/s
83%
13:00
15°
1003.8 hPa 1.3 mm
82%
10.1°
4
Windvlaag: -0.6 m/s
86%
14:00
16°
1003.7 hPa 1.3 mm
82%
9.7°
4
Windvlaag: 0.7 m/s
78%
15:00
16°
1003.5 hPa 1.1 mm
82%
10.5°
4
Windvlaag: 0.9 m/s
71%
16:00
17°
1003.5 hPa 1.4 mm
82%
10.4°
4
Windvlaag: -0.7 m/s
82%
17:00
16°
1004.0 hPa 1.7 mm
82%
10.3°
4
Windvlaag: -1.8 m/s
84%
18:00
16°
1004.2 hPa 2.8 mm
81%
10.8°
3
Windvlaag: -3.2 m/s
70%
19:00
15°
1004.5 hPa 2.7 mm
82%
10.7°
3
Windvlaag: -0.6 m/s
83%
20:00
15°
1004.9 hPa 2.8 mm
82%
10.8°
3
Windvlaag: 1.5 m/s
71%
21:00
15°
1005.2 hPa 2.7 mm
82%
11.0°
3
Windvlaag: 1.4 m/s
67%
22:00
15°
1005.6 hPa
82%
11.3°
4
Windvlaag: 0.1 m/s
68%
23:00
14°
1005.8 hPa
72%
11.3°
4
Windvlaag: 0.1 m/s
66%
 05:23     21:05    Daglengte: 15:42 Zaterdag 31 Jul
00:00
14°
1006.0 hPa
26%
11.2°
4
Windvlaag: -0.2 m/s
36%
01:00
14°
1006.0 hPa
17%
11.2°
4
Windvlaag: -0.3 m/s
41%
02:00
14°
1005.9 hPa
20%
11.3°
3
Windvlaag: -0.2 m/s
53%
03:00
14°
1005.9 hPa
18%
11.5°
3
Windvlaag: -0.1 m/s
31%
04:00
13°
1004.9 hPa
24%
12.3°
3
Windvlaag: 0.3 m/s
77%
05:00
14°
1004.9 hPa
27%
12.2°
3
Windvlaag: -0.4 m/s
89%
06:00
14°
1005.1 hPa
21%
12.3°
4
Windvlaag: -0.9 m/s
82%
07:00
14°
1005.4 hPa
21%
12.9°
4
Windvlaag: -0.7 m/s
79%
08:00
15°
1005.8 hPa
22%
13.5°
5
Windvlaag: -0.2 m/s
68%
09:00
15°
1006.1 hPa
24%
13.6°
5
Windvlaag: 0.2 m/s
64%
10:00
16°
1006.2 hPa
25%
14.0°
5
Windvlaag: -0.1 m/s
57%
11:00
17°
1006.2 hPa
28%
14.2°
5
Windvlaag: -0.2 m/s
90%
12:00
18°
1006.1 hPa
25%
13.7°
5
Windvlaag: -0.1 m/s
91%
13:00
18°
1006.3 hPa
87%
14.0°
5
Windvlaag: -0.3 m/s
79%
14:00
17°
1006.5 hPa 6.4 mm
95%
15.6°
4
Windvlaag: 0 m/s
79%
15:00
17°
1006.7 hPa
97%
16.1°
4
Windvlaag: -0.1 m/s
82%
16:00
17°
1006.6 hPa
94%
16.0°
4
Windvlaag: -0.1 m/s
98%
17:00
16°
1006.7 hPa 15.4 mm
95%
14.8°
4
Windvlaag: -1.6 m/s
90%
18:00
16°
1006.6 hPa
35%
14.5°
4
Windvlaag: 0.4 m/s
81%
19:00
16°
1006.6 hPa
25%
13.4°
5
Windvlaag: 0.2 m/s
50%
20:00
16°
1006.8 hPa
24%
12.4°
4
Windvlaag: 0.5 m/s
64%
21:00
15°
1007.1 hPa
24%
12.2°
4
Windvlaag: 0.7 m/s
66%
22:00
14°
1007.4 hPa
25%
11.8°
4
Windvlaag: 1 m/s
71%
23:00
13°
1007.5 hPa
28%
11.8°
3
Windvlaag: 1.5 m/s
73%
 05:24     21:03    Daglengte: 15:39 Zondag 01 Aug
00:00
13°
1007.6 hPa
24%
11.6°
3
Windvlaag: 0.5 m/s
83%
01:00
13°
1007.5 hPa
27%
11.6°
3
Windvlaag: 0.3 m/s
89%
02:00
13°
1007.6 hPa
80%
11.9°
1
Windvlaag: 5.2 m/s
100%
03:00
13°
1007.6 hPa
90%
12.2°
1
Windvlaag: 5 m/s
98%
04:00
13°
1007.6 hPa
89%
12.0°
1
Windvlaag: 5.7 m/s
100%
05:00
13°
1007.7 hPa
47%
11.8°
1
Windvlaag: 4.8 m/s
100%
06:00
13°
1007.9 hPa
84%
11.9°
1
Windvlaag: 5.4 m/s
100%
07:00
13°
1008.3 hPa
44%
11.7°
2
Windvlaag: 5.6 m/s
100%
08:00
13°
1007.8 hPa 48.8 mm
100%
10.8°
3
Windvlaag: 5.3 m/s
100%
09:00
13°
1008.3 hPa 48.9 mm
100%
11.1°
3
Windvlaag: 5.3 m/s
100%
Temp/Neerslag /Baro Onweer/Dauwpunt
    Temp Baro Neerslag Dauwpunt Wind Bewolking  
 05:19     21:09    Daglengte: 15:50 Vandaag
10:00
14°
1004.4 hPa   11.0°
8
64%
13:00
15°
1005.3 hPa   12.3°
9
54%
16:00
15°
1006.2 hPa   12.7°
8
74%
19:00
15°
1006.7 hPa   12.6°
7
57%
22:00
14°
1007.0 hPa   12.0°
5
61%
 05:21     21:07    Daglengte: 15:46 Morgen
01:00
14°
1006.3 hPa   11.9°
3
82%
04:00
13°
1005.1 hPa   11.6°
2
80%
07:00
13°
1004.5 hPa 0.9 mm 11.7°
1
86%
10:00
13°
1004.2 hPa 3.3 mm 10.7°
3
86%
13:00
15°
1003.8 hPa 4.4 mm 10.1°
4
86%
16:00
17°
1003.5 hPa 3.8 mm 10.4°
4
82%
19:00
15°
1004.5 hPa 7.2 mm 10.7°
3
83%
22:00
15°
1005.6 hPa 5.5 mm 11.3°
4
68%
 05:23     21:05    Daglengte: 15:42 Zaterdag 31 Jul
01:00
14°
1006.0 hPa   11.2°
4
41%
04:00
13°
1004.9 hPa   12.3°
3
77%
07:00
14°
1005.4 hPa   12.9°
4
79%
10:00
16°
1006.2 hPa   14.0°
5
57%
13:00
18°
1006.3 hPa   14.0°
5
79%
16:00
17°
1006.6 hPa 6.4 mm 16.0°
4
98%
19:00
16°
1006.6 hPa 15.4 mm 13.4°
5
50%
22:00
14°
1007.4 hPa   11.8°
4
71%
 05:24     21:03    Daglengte: 15:39 Zondag 01 Aug
01:00
13°
1007.5 hPa   11.6°
3
89%
04:00
13°
1007.6 hPa   12.0°
1
100%
07:00
13°
1008.3 hPa   11.7°
2
100%
10:00
14°
1008.7 hPa 146.5 mm 10.8°
3
100%
13:00
14°
1009.4 hPa 147.2 mm 10.4°
4
100%
16:00
14°
1012.7 hPa 10.1 mm 9.6°
3
1%
19:00
13°
1013.3 hPa 10.2 mm 10.4°
3
1%
22:00
12°
1014.6 hPa 10.2 mm 8.8°
2
1%
 05:26     21:02    Daglengte: 15:36 Maandag 02 Aug
01:00
11°
1015.0 hPa 10.2 mm 8.2°
2
1%
04:00
10°
Voelt als: 8.8°
1015.4 hPa 10.2 mm 6.8°
2
1%
07:00
10°
1015.9 hPa 10.2 mm 7.0°
2
0%
10:00
15°
1016.0 hPa 10.2 mm 6.9°
3
0%
13:00
17°
1015.8 hPa 10.3 mm 5.8°
3
0%
16:00
16°
1016.4 hPa 10.3 mm 7.3°
2
1%
19:00
17°
1016.0 hPa 10.4 mm 6.7°
1
1%
22:00
15°
1016.7 hPa 10.4 mm 7.2°
1
1%
 05:28     21:00    Daglengte: 15:32 Dinsdag 03 Aug
01:00
14°
1016.9 hPa 10.4 mm 7.2°
1
1%
04:00
13°
1016.5 hPa 10.4 mm 8.1°
2
1%
07:00
12°
1017.0 hPa 10.4 mm 7.7°
2
1%
10:00
17°
1016.8 hPa 10.4 mm 7.9°
2
0%
13:00
19°
1015.6 hPa 10.5 mm 7.8°
3
1%
16:00
19°
1015.2 hPa 10.5 mm 7.6°
3
1%
19:00
18°
1015.3 hPa 10.5 mm 8.3°
3
1%
22:00
14°
1016.2 hPa 10.5 mm 9.1°
2
0%
 05:29     20:58    Daglengte: 15:29 Woensdag 04 Aug
01:00
13°
1016.3 hPa 10.5 mm 8.6°
2
1%
04:00
12°
1015.5 hPa 10.5 mm 8.4°
1
1%
07:00
13°
1016.0 hPa 10.5 mm 9.0°
1
1%
10:00
17°
1015.8 hPa 10.5 mm 8.8°
3
1%
13:00
19°
1015.4 hPa 10.7 mm 11.0°
4
1%
16:00
21°
1014.6 hPa 11.1 mm 11.0°
4
1%
19:00
19°
1014.7 hPa 11.5 mm 13.2°
3
1%
22:00
14°
1015.5 hPa 11.7 mm 11.8°
2
0%
 05:31     20:56    Daglengte: 15:25 Donderdag 05 Aug
01:00
13°
1015.6 hPa 11.7 mm 10.3°
2
0%
04:00
12°
1014.9 hPa 11.7 mm 9.7°
1
1%
07:00
13°
1014.7 hPa 23.4 mm 10.5°
1
1%
13:00
20°
1013.3 hPa 23.5 mm 11.5°
4
1%
19:00
17°
1011.9 hPa 25.4 mm 14.3°
2
1%
 05:33     20:54    Daglengte: 15:21 Vrijdag 06 Aug
01:00
15°
1011.4 hPa 27.4 mm 13.4°
1
1%
07:00
14°
1010.2 hPa 27.4 mm 13.2°
1
1%
13:00
20°
1008.4 hPa 28.4 mm 11.3°
3
1%
19:00
17°
1006.7 hPa 31.8 mm 13.9°
2
1%
 05:34     20:52    Daglengte: 15:18 Zaterdag 07 Aug
01:00
15°
1005.5 hPa 35.6 mm 13.2°
2
1%
07:00
13°
1003.1 hPa 37.7 mm 12.4°
2
1%
13:00
15°
1001.4 hPa 57.3 mm 13.2°
2
1%
19:00
16°
1000.2 hPa 65.0 mm 13.7°
2
1%
 05:36     20:50    Daglengte: 15:14 Zondag 08 Aug
01:00
13°
1001.9 hPa 68.9 mm 11.3°
2
1%
07:00
13°
1007.2 hPa 0.6 mm 11.3°
3
73%
13:00
18°
1008.0 hPa 1.4 mm 12.0°
4
81%
19:00
17°
1008.7 hPa 1.8 mm 12.0°
3
74%
 05:38     20:48    Daglengte: 15:10 Maandag 09 Aug
01:00
13°
1010.6 hPa 0.5 mm 10.9°
3
58%
07:00
13°
1011.4 hPa 0.4 mm 10.9°
2
58%
13:00
19°
1012.6 hPa 0.8 mm 12.0°
4
62%
19:00
18°
1012.9 hPa 1.7 mm 12.1°
3
55%
 05:40     20:46    Daglengte: 15:06 Dinsdag 10 Aug
01:00
13°
1014.6 hPa 0.2 mm 10.7°
2
49%
07:00
13°
1014.7 hPa 0.4 mm 11.2°
3
61%
13:00
19°
1014.9 hPa 0.5 mm 12.2°
4
65%
19:00
18°
1014.2 hPa   12.7°
3
72%
 05:41     20:44    Daglengte: 15:03 Woensdag 11 Aug
01:00
14°
1014.8 hPa 0.4 mm 11.6°
3
60%
07:00
14°
1014.5 hPa 0.7 mm 12.0°
3
61%
13:00
19°
1014.9 hPa 0.5 mm 12.6°
4
72%
19:00
18°
1014.7 hPa 1.1 mm 12.8°
3
67%
 05:43     20:42    Daglengte: 14:59 Donderdag 12 Aug
01:00
14°
1015.9 hPa 0.3 mm 11.4°
2
60%
07:00
13°
1015.8 hPa 0.2 mm 11.5°
2
62%
13:00
19°
1015.5 hPa 0.8 mm 12.1°
3
67%
19:00
18°
1014.9 hPa 1.2 mm 12.4°
3
59%
 05:45     20:40    Daglengte: 14:55 Vrijdag 13 Aug
01:00
13°
1015.5 hPa 0.7 mm 11.2°
2
54%
07:00
13°
1015.2 hPa 0.9 mm 11.6°
2
68%
  CAPE Lifted Index Hail Supercell Tornado SRH 3km CL BTM PRES CL TOP PRES Swiss DWD icon SMHI TS
 05:19     21:09    Daglengte: 15:50 Vandaag
10:00 10 J/kg 2.9 K 0 % 0 % 0 % 0 m²/s² 0 0 6.02 3
11:00 5 J/kg 2.8 K 0 % 0 % 0 % 0 m²/s² 0 0 6.1 3
12:00 11 J/kg 3.1 K 0 % 0 % 0 % 0 m²/s² 0 0 6.31 3
13:00 11 J/kg 3.3 K 0 % 0 % 0 % 0 m²/s² 0 0 5.82 3
14:00 7 J/kg 3.2 K 0 % 0 % 0 % 0 m²/s² 0 0 5.3 3
15:00 6 J/kg 3.1 K 0 % 0 % 0 % 0 m²/s² 0 0 5.26 3
16:00 8 J/kg 3.1 K 0 % 0 % 0 % 0 m²/s² 0 0 5.5 3
17:00 6 J/kg 3.0 K 0 % 0 % 0 % 0 m²/s² 0 0 4.92 3
18:00 5 J/kg 3.1 K 0 % 0 % 0 % 0 m²/s² 0 0 4.78 3
19:00 0 J/kg 3.2 K 0 % 0 % 0 % 0 m²/s² 0 0 4.94 3
20:00 0 J/kg 3.6 K 0 % 0 % 0 % 0 m²/s² 0 0 5.52 3
21:00 0 J/kg 4.3 K 0 % 0 % 0 % 0 m²/s² 0 0 6.49 3
22:00 0 J/kg 4.3 K 0 % 0 % 0 % 0 m²/s² 0 0 6.46 3
23:00 0 J/kg 4.3 K 0 % 0 % 0 % 0 m²/s² 0 0 7.06 3
 05:21     21:07    Daglengte: 15:46 Morgen
00:00 0 J/kg 4.2 K 0 % 0 % 0 % 0 m²/s² 0 0 7.53 3
01:00 0 J/kg 4.0 K 0 % 0 % 0 % 0 m²/s² 0 0 7.81 3
02:00 0 J/kg 4.1 K 0 % 0 % 0 % 0 m²/s² 0 0 7.19 3
03:00 0 J/kg 4.2 K 0 % 0 % 0 % 0 m²/s² 0 0 6.45 3
04:00 0 J/kg 4.5 K 0 % 0 % 0 % 0 m²/s² 0 0 6.06 61
05:00 1 J/kg 4.6 K 0 % 0 % 0 % 0 m²/s² 0 0 5.38 61
06:00 0 J/kg 4.5 K 0 % 0 % 0 % 0 m²/s² 0 0 4.74 61
07:00 0 J/kg 3.9 K 0 % 0 % 0 % 0 m²/s² 0 0 4.08 61
08:00 28 J/kg 4.0 K 0 % 0 % 0 % 0 m²/s² 0 0 4.03 61
09:00 10 J/kg 3.9 K 0 % 0 % 0 % 0 m²/s² 0 0 3.93 61
10:00 32 J/kg 3.9 K 0 % 0 % 0 % 0 m²/s² 0 0 3.99 61
11:00 21 J/kg 4.1 K 0 % 0 % 0 % 0 m²/s² 0 0 4.13 61
12:00 14 J/kg 3.9 K 0 % 0 % 0 % 0 m²/s² 0 0 4.41 61
13:00 1 J/kg 3.5 K 0 % 0 % 0 % 0 m²/s² 0 0 4.94 61
14:00 0 J/kg 2.3 K 0 % 0 % 0 % 0 m²/s² 0 0 4.46 61
15:00 3 J/kg 1.6 K 0 % 0 % 0 % 0 m²/s² 0 0 3.88 61
16:00 52 J/kg 1.0 K 0 % 0 % 0 % 0 m²/s² 0 0 3.07 61
17:00 163 J/kg -0.1 K 0 % 0 % 0 % 0 m²/s² 0 0 1.31 61
18:00 255 J/kg -1.1 K 0 % 0 % 0 % 0 m²/s² 0 0 -0.77 61
19:00 322 J/kg -1.1 K 0 % 0 % 0 % 0 m²/s² 0 0 -0.8 61
20:00 190 J/kg -0.3 K 0 % 0 % 0 % 0 m²/s² 0 0 0.24 61
21:00 124 J/kg -0.1 K 0 % 0 % 0 % 0 m²/s² 0 0 0.98 61
22:00 136 J/kg 0.2 K 0 % 0 % 0 % 0 m²/s² 0 0 0.62 3
23:00 129 J/kg 0.1 K 0 % 0 % 0 % 0 m²/s² 0 0 0.28 3
 05:23     21:05    Daglengte: 15:42 Zaterdag 31 Jul
00:00 139 J/kg 0.0 K 0 % 0 % 0 % 0 m²/s² 0 0 0.21 3
01:00 122 J/kg -0.1 K 0 % 0 % 0 % 0 m²/s² 0 0 0.29 3
02:00 78 J/kg 0.5 K 0 % 0 % 0 % 0 m²/s² 0 0 1.13 3
03:00 2 J/kg 1.8 K 0 % 0 % 0 % 0 m²/s² 0 0 2.49 3
04:00 0 J/kg 1.6 K 0 % 0 % 0 % 0 m²/s² 0 0 2.08 3
05:00 0 J/kg 1.2 K 0 % 0 % 0 % 0 m²/s² 0 0 1.5 3
06:00 0 J/kg 1.7 K 0 % 0 % 0 % 0 m²/s² 0 0 1.88 3
07:00 0 J/kg 1.0 K 0 % 0 % 0 % 0 m²/s² 0 0 1.21 3
08:00 18 J/kg 0.6 K 0 % 0 % 0 % 0 m²/s² 0 0 1.2 2
09:00 117 J/kg 0.3 K 0 % 0 % 0 % 0 m²/s² 0 0 1.08 2
10:00 125 J/kg 0.3 K 0 % 0 % 0 % 0 m²/s² 0 0 1.26 2
11:00 125 J/kg 0.3 K 0 % 0 % 0 % 0 m²/s² 0 0 1.32 3
12:00 364 J/kg -0.9 K 0 % 0 % 0 % 0 m²/s² 0 0 -0.3 3
13:00 366 J/kg -1.1 K 0 % 0 % 0 % 0 m²/s² 0 0 -0.8 3
14:00 103 J/kg -0.4 K 0 % 0 % 0 % 0 m²/s² 0 0 -0.4 3
15:00 1 J/kg -0.5 K 0 % 0 % 0 % 0 m²/s² 0 0 -0.5 3
16:00 41 J/kg -0.8 K 0 % 0 % 0 % 0 m²/s² 0 0 -0.77 3
17:00 82 J/kg -0.4 K 0 % 0 % 0 % 0 m²/s² 0 0 -0.37 80
18:00 138 J/kg -0.6 K 0 % 0 % 0 % 0 m²/s² 0 0 0.57 3
19:00 19 J/kg 0.0 K 0 % 0 % 0 % 0 m²/s² 0 0 0.69 2
20:00 5 J/kg 0.7 K 0 % 0 % 0 % 0 m²/s² 0 0 2.56 3
21:00 0 J/kg 0.3 K 0 % 0 % 0 % 0 m²/s² 0 0 3.06 2
22:00 0 J/kg 0.3 K 0 % 0 % 0 % 0 m²/s² 0 0 3.21 2
23:00 0 J/kg 0.0 K 0 % 0 % 0 % 0 m²/s² 0 0 2.91 3
 05:24     21:03    Daglengte: 15:39 Zondag 01 Aug
00:00 0 J/kg -0.1 K 0 % 0 % 0 % 0 m²/s² 0 0 2.9 3
01:00 0 J/kg 0.2 K 0 % 0 % 0 % 0 m²/s² 0 0 3.35 3
02:00 2 J/kg 0.7 K 0 % 0 % 0 % 0 m²/s² 0 0 3.76 3
03:00 2 J/kg 1.4 K 0 % 0 % 0 % 0 m²/s² 0 0 4.28 3
04:00 2 J/kg 2.2 K 0 % 0 % 0 % 0 m²/s² 0 0 5.35 3
05:00 2 J/kg 2.8 K 0 % 0 % 0 % 0 m²/s² 0 0 6.88 3
06:00 2 J/kg 3.1 K 0 % 0 % 0 % 0 m²/s² 0 0 7.6 3
07:00 2 J/kg 3.6 K 0 % 0 % 0 % 0 m²/s² 0 0 8.1 3
08:00 3 J/kg 4.0 K 0 % 0 % 0 % 0 m²/s² 0 0 8.17
09:00 25 J/kg 4.5 K 0 % 0 % 0 % 0 m²/s² 0 0 8.25
Temp Baro Wind Neerslag
  EWN Forecast EWN WRFDA DWD ICON FMI HIRLAM MET Norway GFS
 05:19     21:09    Daglengte: 15:50 Vandaag
10:00 14.1° 1004.4 hPa 8.2 m/s 0.0 mm 13.4° 1003.8 hPa 8.0 m/s 0.0 mm 14.6° 1004.3 hPa 7.7 m/s -2.0 mm 14.2° 1005.3 hPa 9.1 m/s 0.0 mm 12.6° 1004.9 hPa 7.1 m/s
13:00 15.2° 1005.3 hPa 8.6 m/s 0.0 mm 15.2° 1005.0 hPa 8.5 m/s 0.2 mm 15.0° 1005.2 hPa 6.9 m/s 0.1 mm 15.1° 1006.1 hPa 8.9 m/s 0.0 mm 14.7° 1005.7 hPa 7.4 m/s
16:00 15.4° 1006.2 hPa 7.9 m/s 0.0 mm 16.3° 1005.6 hPa 9.1 m/s 0.2 mm 15.1° 1006.1 hPa 6.0 m/s 0.0 mm 15.2° 1006.8 hPa 8.0 m/s 0.0 mm 14.0° 1006.5 hPa 7.3 m/s
19:00 14.8° 1006.7 hPa 6.5 m/s 0.0 mm 15.8° 1005.7 hPa 7.6 m/s 0.2 mm 14.8° 1006.8 hPa 6.0 m/s 0.0 mm 14.6° 1007.6 hPa 6.2 m/s 0.0 mm 14.6° 1006.8 hPa 6.4 m/s
22:00 13.9° 1007.0 hPa 4.5 m/s 0.0 mm 14.1° 1006.3 hPa 5.2 m/s 0.2 mm 13.8° 1006.9 hPa 3.0 m/s 0.0 mm 14.8° 1008.1 hPa 4.4 m/s 0.0 mm 14.0° 1007.2 hPa 4.3 m/s
 05:21     21:07    Daglengte: 15:46 Morgen
01:00 13.8° 1006.3 hPa 3.2 m/s 0.0 mm 13.1° 1005.2 hPa 2.8 m/s 0.2 mm 13.4° 1006.3 hPa 1.3 m/s 0.0 mm 14.4° 1007.5 hPa 3.4 m/s 0.0 mm 12.5° 1006.5 hPa 2.0 m/s
04:00 13.0° 1005.1 hPa 2.0 m/s 0.0 mm 12.3° 1004.3 hPa 1.5 m/s 0.2 mm 12.7° 1005.0 hPa 0.3 m/s 0.1 mm 13.8° 1006.9 hPa 2.3 m/s 0.0 mm 11.6° 1005.3 hPa 0.8 m/s
07:00 12.7° 1004.5 hPa 1.3 m/s 0.9 mm 12.8° 1003.1 hPa 2.1 m/s 0.2 mm 12.4° 1003.8 hPa 0.6 m/s 1.0 mm 13.1° 1007.2 hPa 1.5 m/s 0.0 mm 13.0° 1004.3 hPa 1.4 m/s
10:00 13.4° 1004.2 hPa 2.5 m/s 3.3 mm 13.7° 1003.0 hPa 2.6 m/s 1.8 mm 12.8° 1003.0 hPa 3.2 m/s 4.9 mm 15.0° 1007.1 hPa 2.6 m/s 0.0 mm 12.7° 1003.9 hPa 2.8 m/s
13:00 14.9° 1003.8 hPa 3.6 m/s 4.4 mm 14.0° 1002.4 hPa 3.6 m/s 11.5 mm 13.9° 1002.6 hPa 3.6 m/s 2.1 mm 17.1° 1007.1 hPa 4.8 m/s 0.0 mm 13.0° 1003.1 hPa 3.8 m/s
16:00 16.5° 1003.5 hPa 4.2 m/s 3.8 mm 16.1° 1001.6 hPa 3.4 m/s 13.0 mm 14.9° 1002.8 hPa 4.1 m/s 1.3 mm 18.4° 1007.1 hPa 5.3 m/s 0.0 mm 12.2° 1002.9 hPa 2.3 m/s
19:00 15.4° 1004.5 hPa 3.0 m/s 7.2 mm 15.7° 1002.0 hPa 4.5 m/s 24.0 mm 15.2° 1003.7 hPa 2.8 m/s 0.5 mm 17.3° 1007.8 hPa 4.7 m/s 0.0 mm 13.1° 1003.7 hPa 2.0 m/s
22:00 14.6° 1005.6 hPa 4.0 m/s 5.5 mm 14.8° 1003.4 hPa 4.3 m/s 35.9 mm 14.3° 1004.8 hPa 1.9 m/s 0.6 mm 15.5° 1009.3 hPa 4.5 m/s 0.0 mm 12.8° 1004.3 hPa 2.3 m/s
 05:23     21:05    Daglengte: 15:42 Zaterdag 31 Jul
01:00 14.0° 1006.0 hPa 3.6 m/s 0.0 mm 14.2° 1004.0 hPa 3.1 m/s 37.2 mm 13.9° 1004.8 hPa 1.9 m/s 0.0 mm 15.0° 1009.1 hPa 3.7 m/s 0.0 mm 12.9° 1005.0 hPa 2.3 m/s
04:00 13.3° 1004.9 hPa 3.1 m/s 0.0 mm 12.4° 1003.7 hPa 2.8 m/s 37.4 mm 14.0° 1004.8 hPa 2.0 m/s 0.0 mm 12.3° 1005.3 hPa 2.0 m/s
07:00 13.8° 1005.4 hPa 3.9 m/s 0.0 mm 13.7° 1004.5 hPa 3.5 m/s 37.7 mm 14.7° 1005.4 hPa 3.2 m/s 0.0 mm 13.3° 1006.0 hPa 2.4 m/s
10:00 16.2° 1006.2 hPa 4.7 m/s 0.0 mm 16.1° 1005.0 hPa 4.8 m/s 38.6 mm 17.4° 1006.2 hPa 4.0 m/s 0.0 mm 15.0° 1007.1 hPa 1.7 m/s
13:00 18.0° 1006.3 hPa 4.7 m/s 0.0 mm 18.2° 1004.7 hPa 3.4 m/s 39.9 mm 18.4° 1006.5 hPa 4.8 m/s 0.0 mm 15.0° 1007.9 hPa 3.2 m/s
16:00 16.5° 1006.6 hPa 3.8 m/s 6.4 mm 15.0° 1005.8 hPa 0.4 m/s 94.7 mm 18.2° 1006.7 hPa 3.9 m/s 0.2 mm 17.4° 1008.0 hPa 5.0 m/s
19:00 16.2° 1006.6 hPa 4.6 m/s 15.4 mm 16.4° 1005.5 hPa 3.7 m/s 140.8 mm 17.3° 1006.8 hPa 4.2 m/s 0.2 mm 16.8° 1007.9 hPa 4.5 m/s
22:00 13.6° 1007.4 hPa 3.7 m/s 0.0 mm 14.1° 1006.5 hPa 3.8 m/s 144.0 mm 13.9° 1007.8 hPa 2.2 m/s 0.0 mm 13.3° 1009.1 hPa 2.2 m/s
 05:24     21:03    Daglengte: 15:39 Zondag 01 Aug
01:00 12.9° 1007.5 hPa 3.1 m/s 0.0 mm 13.6° 1006.5 hPa 3.5 m/s 144.0 mm 12.9° 1008.0 hPa 1.1 m/s 0.0 mm 11.8° 1009.3 hPa 2.6 m/s
04:00 13.2° 1007.6 hPa 1.0 m/s 0.0 mm 13.1° 1006.4 hPa 3.2 m/s 144.9 mm 13.2° 1007.9 hPa 0.5 m/s 0.1 mm 10.4° 1009.4 hPa 2.0 m/s
07:00 13.2° 1008.3 hPa 1.6 m/s 0.0 mm 12.5° 1007.2 hPa 3.1 m/s 145.6 mm 13.3° 1008.6 hPa 1.3 m/s 0.0 mm 11.4° 1009.9 hPa 1.6 m/s
10:00 13.8° 1008.7 hPa 2.7 m/s 146.5 mm 13.8° 1008.7 hPa 2.7 m/s 146.5 mm 14.0° 1010.6 hPa 1.7 m/s
13:00 14.3° 1009.4 hPa 3.7 m/s 147.2 mm 14.3° 1009.4 hPa 3.7 m/s 147.2 mm 12.8° 1011.9 hPa 2.8 m/s
16:00 13.5° 1012.7 hPa 2.7 m/s 10.1 mm 13.5° 1012.7 hPa 2.7 m/s 10.1 mm
19:00 12.7° 1013.3 hPa 2.6 m/s 10.2 mm 12.7° 1013.3 hPa 2.6 m/s 10.1 mm
22:00 12.1° 1014.6 hPa 2.1 m/s 10.2 mm 12.1° 1014.6 hPa 2.1 m/s 10.2 mm
 05:26     21:02    Daglengte: 15:36 Maandag 02 Aug
01:00 11.5° 1015.0 hPa 1.7 m/s 10.2 mm 11.5° 1015.0 hPa 1.7 m/s 10.2 mm
04:00 9.6° 1015.4 hPa 1.9 m/s 10.2 mm 9.6° 1015.4 hPa 1.9 m/s 10.2 mm
07:00 10.5° 1015.9 hPa 1.7 m/s 10.2 mm 10.5° 1015.9 hPa 1.7 m/s 10.2 mm
10:00 14.8° 1016.0 hPa 3.5 m/s 10.2 mm 14.8° 1016.0 hPa 3.5 m/s 10.2 mm
13:00 16.9° 1015.8 hPa 2.7 m/s 10.3 mm 16.9° 1015.8 hPa 2.7 m/s 10.3 mm
16:00 15.8° 1016.4 hPa 2.2 m/s 10.3 mm 15.8° 1016.4 hPa 2.2 m/s 10.3 mm
19:00 16.6° 1016.0 hPa 1.0 m/s 10.4 mm 16.6° 1016.0 hPa 1.0 m/s 10.4 mm
22:00 14.5° 1016.7 hPa 0.9 m/s 10.4 mm 14.5° 1016.7 hPa 0.9 m/s 10.4 mm
 05:28     21:00    Daglengte: 15:32 Dinsdag 03 Aug
01:00 13.9° 1016.9 hPa 1.0 m/s 10.4 mm 13.9° 1016.9 hPa 1.0 m/s 10.4 mm
04:00 13.2° 1016.5 hPa 1.7 m/s 10.4 mm 13.2° 1016.5 hPa 1.7 m/s 10.4 mm
07:00 12.1° 1017.0 hPa 1.8 m/s 10.4 mm 12.1° 1017.0 hPa 1.8 m/s 10.4 mm
10:00 16.6° 1016.8 hPa 2.5 m/s 10.4 mm 16.6° 1016.8 hPa 2.5 m/s 10.4 mm
13:00 19.4° 1015.6 hPa 3.3 m/s 10.5 mm 19.4° 1015.6 hPa 3.3 m/s 10.5 mm
16:00 19.1° 1015.2 hPa 3.4 m/s 10.5 mm 19.1° 1015.2 hPa 3.4 m/s 10.5 mm
19:00 18.2° 1015.3 hPa 3.0 m/s 10.5 mm 18.2° 1015.3 hPa 3.0 m/s 10.5 mm
22:00 13.8° 1016.2 hPa 1.7 m/s 10.5 mm 13.8° 1016.2 hPa 1.7 m/s 10.5 mm
 05:29     20:58    Daglengte: 15:29 Woensdag 04 Aug
01:00 12.7° 1016.3 hPa 1.6 m/s 10.5 mm 12.7° 1016.3 hPa 1.6 m/s 10.5 mm
04:00 12.3° 1015.5 hPa 1.4 m/s 10.5 mm 12.3° 1015.5 hPa 1.4 m/s 10.5 mm
07:00 13.3° 1016.0 hPa 1.3 m/s 10.5 mm 13.3° 1016.0 hPa 1.3 m/s 10.5 mm
10:00 17.1° 1015.8 hPa 2.5 m/s 10.5 mm 17.1° 1015.8 hPa 2.5 m/s 10.5 mm
13:00 19.3° 1015.4 hPa 3.8 m/s 10.7 mm 19.3° 1015.4 hPa 3.8 m/s 10.7 mm
16:00 20.6° 1014.6 hPa 4.0 m/s 11.1 mm 20.6° 1014.6 hPa 4.0 m/s 11.1 mm
19:00 18.7° 1014.7 hPa 3.4 m/s 11.5 mm 18.7° 1014.7 hPa 3.4 m/s 11.5 mm
22:00 14.4° 1015.5 hPa 2.0 m/s 11.7 mm 14.4° 1015.5 hPa 2.0 m/s 11.7 mm
 05:31     20:56    Daglengte: 15:25 Donderdag 05 Aug
01:00 12.8° 1015.6 hPa 1.8 m/s 11.7 mm 12.8° 1015.6 hPa 1.8 m/s 11.7 mm
04:00 12.2° 1014.9 hPa 1.4 m/s 11.7 mm 12.2° 1014.9 hPa 1.4 m/s 11.7 mm
07:00 13.3° 1014.7 hPa 1.3 m/s 11.7 mm 13.3° 1014.7 hPa 1.3 m/s 11.7 mm
13:00 19.9° 1013.3 hPa 3.6 m/s 11.8 mm 19.9° 1013.3 hPa 3.6 m/s 11.8 mm
19:00 16.5° 1011.9 hPa 1.6 m/s 13.3 mm 16.5° 1011.9 hPa 1.6 m/s 13.3 mm
 05:33     20:54    Daglengte: 15:21 Vrijdag 06 Aug
01:00 14.9° 1011.4 hPa 1.0 m/s 13.7 mm 14.9° 1011.4 hPa 1.0 m/s 13.7 mm
07:00 14.2° 1010.2 hPa 1.3 m/s 13.7 mm 14.2° 1010.2 hPa 1.3 m/s 13.7 mm
13:00 20.2° 1008.4 hPa 2.8 m/s 14.6 mm 20.2° 1008.4 hPa 2.8 m/s 14.6 mm
19:00 17.4° 1006.7 hPa 2.3 m/s 16.6 mm 17.4° 1006.7 hPa 2.3 m/s 16.6 mm
 05:34     20:52    Daglengte: 15:18 Zaterdag 07 Aug
01:00 14.6° 1005.5 hPa 2.1 m/s 17.9 mm 14.6° 1005.5 hPa 2.1 m/s 17.9 mm
07:00 13.3° 1003.1 hPa 1.7 m/s 19.5 mm 13.3° 1003.1 hPa 1.7 m/s 19.5 mm
13:00 15.0° 1001.4 hPa 2.2 m/s 30.1 mm 15.0° 1001.4 hPa 2.2 m/s 30.1 mm
19:00 16.3° 1000.2 hPa 2.2 m/s 33.7 mm 16.3° 1000.2 hPa 2.2 m/s 33.7 mm
 05:36     20:50    Daglengte: 15:14 Zondag 08 Aug
01:00 13.1° 1001.9 hPa 2.4 m/s 34.5 mm 13.1° 1001.9 hPa 2.4 m/s 34.5 mm
07:00 13.1° 1007.2 hPa 2.7 m/s 0.6 mm
13:00 17.7° 1008.0 hPa 4.2 m/s 1.4 mm
19:00 16.8° 1008.7 hPa 3.5 m/s 1.8 mm
 05:38     20:48    Daglengte: 15:10 Maandag 09 Aug
01:00 12.9° 1010.6 hPa 2.7 m/s 0.5 mm
07:00 12.7° 1011.4 hPa 2.3 m/s 0.4 mm
13:00 18.9° 1012.6 hPa 4.0 m/s 0.8 mm
19:00 17.8° 1012.9 hPa 3.0 m/s 1.7 mm
 05:40     20:46    Daglengte: 15:06 Dinsdag 10 Aug
01:00 13.0° 1014.6 hPa 2.4 m/s 0.2 mm
07:00 13.0° 1014.7 hPa 2.6 m/s 0.4 mm
13:00 19.1° 1014.9 hPa 4.4 m/s 0.5 mm
19:00 17.8° 1014.2 hPa 3.5 m/s 0.0 mm
 05:41     20:44    Daglengte: 15:03 Woensdag 11 Aug
01:00 13.6° 1014.8 hPa 2.6 m/s 0.4 mm
07:00 13.8° 1014.5 hPa 2.8 m/s 0.7 mm
13:00 19.3° 1014.9 hPa 3.8 m/s 0.5 mm
19:00 18.1° 1014.7 hPa 3.1 m/s 1.1 mm
 05:43     20:42    Daglengte: 14:59 Donderdag 12 Aug
01:00 13.6° 1015.9 hPa 1.9 m/s 0.3 mm
07:00 13.3° 1015.8 hPa 1.6 m/s 0.2 mm
13:00 18.7° 1015.5 hPa 2.8 m/s 0.8 mm
19:00 17.7° 1014.9 hPa 2.9 m/s 1.2 mm
 05:45     20:40    Daglengte: 14:55 Vrijdag 13 Aug
01:00 13.3° 1015.5 hPa 2.1 m/s 0.7 mm
07:00 13.4° 1015.2 hPa 1.9 m/s 0.9 mm
FMI Hirlam - 7.5 km EWN WRFDA - 12 km DWD ICON - 7 km GFS - 25 km Basiskaart






























































Updatetijd (Europe/Amsterdam) Resolutie Lengte Stap
FMI Hirlam 07:00, 13:00, 19:00, 01:00 7.5 km 49h 1h
EWN WRFDA 10:15, 16:15, 22:15, 04:15 12 km 73h 1h
DWD ICON 06:15, 12:15, 18:15, 00:15 7 km 75h 1h
GFS 08:15, 14:15, 20:15, 02:15 25 km 237h 3h
30+ mm
25-30 mm
20-25 mm
15-20 mm
10-15 mm
6-10 mm
4-6 mm
2-4 mm
1-2 mm
0.5-1 mm
0.2-0.5 mm
0.1-0.2 mm
30+ mm
25-30 mm
20-25 mm
15-20 mm
10-15 mm
6-10 mm
4-6 mm
2-4 mm
1-2 mm
0.5-1 mm
0.2-0.5 mm
0.1-0.2 mm
Sneeuwval
Natte sneeuw
Hagel
Vorst
30+ mm
25-30 mm
20-25 mm
15-20 mm
10-15 mm
6-10 mm
4-6 mm
2-4 mm
1-2 mm
0.5-1 mm
0.2-0.5 mm
0.1-0.2 mm
Sneeuwval
Natte sneeuw
Hagel
Vorst
Onweer
50 mm
40 mm
30 mm
26 mm
22 mm
18 mm
14 mm
10 mm
9 mm
8 mm
7 mm
6 mm
5 mm
4.5 mm
4 mm
3.5 mm
3 mm
2.5 mm
2 mm
1.5 mm
1 mm
0.8 mm
0.6 mm
0.4 mm
0.2 mm
0.05 mm
35°
30°
25°
20°
15°
10°
-5°
-10°
-15°
-20°
-25°
-30°
-35°
33> m/s
29 m/s
25 m/s
21 m/s
17 m/s
14 m/s
11 m/s
8 m/s
5 m/s
3 m/s
0 m/s
2600 J/kg
2400 J/kg
2200 J/kg
2000 J/kg
1800 J/kg
1600 J/kg
1400 J/kg
1200 J/kg
1000 J/kg
800 J/kg
600 J/kg
400 J/kg
200 J/kg
70 dBZ
65 dBZ
60 dBZ
55 dBZ
50 dBZ
45 dBZ
40 dBZ
35 dBZ
30 dBZ
25 dBZ
20 dBZ
15 dBZ
10 dBZ
5 dBZ
-1 K
-2 K
-3 K
-4 K
-5 K
-6 K
-7 K
-8 K
-9 K
950 m²/s²
900 m²/s²
850 m²/s²
800 m²/s²
750 m²/s²
700 m²/s²
650 m²/s²
600 m²/s²
550 m²/s²
500 m²/s²
450 m²/s²
400 m²/s²
350 m²/s²
300 m²/s²
250 m²/s²
200 m²/s²
150 m²/s²
100 m²/s²
46 m/s
44 m/s
42 m/s
40 m/s
38 m/s
36 m/s
34 m/s
32 m/s
30 m/s
28 m/s
26 m/s
24 m/s
22 m/s
20 m/s
16 m/s
12 m/s
8 m/s
4 m/s
30 m/s
28 m/s
26 m/s
24 m/s
22 m/s
20 m/s
18 m/s
16 m/s
14 m/s
12 m/s
10 m/s
8 m/s
6 m/s
4 m/s
2 m/s
3.0
2.8
2.6
2.4
2.2
2.0
1.8
1.6
1.4
1.2
1.0
0.8
0.6
0.4
0.2
15
14
13
12
11
10
9
8
7
6
5
4
3
2
1
90%
80%
70%
60%
50%
40%
30%
20%
10%
42
40
38
36
34
32
30
28
26
24
22
20
18
16
14
12
90+ cm
80-90 cm
70-80 cm
60-70 cm
50-60 cm
40-50 cm
30-40 cm
20-30 cm
10-20 cm
1-10 cm
Sneeuwval
Natte sneeuw
Regen
>120 mm
115 mm
110 mm
105 mm